| time (UTC) | temp F | wind direction | speed knots | gust knots | rain 1hr in | rain 24hr in | rain mn in | humidity % | barometer mb |
| 20260507195922 | 77 | 106 | 3.5 | 9.6 | 0.00 | 0.00 | 0.00 | 28 | 1025.7 |
| 20260507195157 | 76 | 142 | 5.2 | 9.6 | 0.00 | 0.00 | 0.00 | 26 | 1025.7 |
| 20260507194658 | 76 | 99 | 5.2 | 9.6 | 0.00 | 0.00 | 0.00 | 26 | 1025.7 |
| 20260507194418 | 76 | 109 | 2.6 | 8.7 | 0.00 | 0.00 | 0.00 | 26 | 1025.6 |
| 20260507193657 | 76 | 90 | 5.2 | 8.7 | 0.00 | 0.00 | 0.00 | 27 | 1025.7 |
| 20260507193157 | 76 | 58 | 3.5 | 7.8 | 0.00 | 0.00 | 0.00 | 26 | 1025.8 |
| 20260507192656 | 76 | 86 | 2.6 | 8.7 | 0.00 | 0.00 | 0.00 | 27 | 1026.1 |
| 20260507192157 | 75 | 134 | 2.6 | 8.7 | 0.00 | 0.00 | 0.00 | 28 | 1026.0 |
| 20260507191656 | 75 | 131 | 2.6 | 6.1 | 0.00 | 0.00 | 0.00 | 27 | 1026.1 |
| 20260507191158 | 75 | 80 | 3.5 | 8.7 | 0.00 | 0.00 | 0.00 | 26 | 1026.2 |
| 20260507190655 | 75 | 116 | 2.6 | 8.7 | 0.00 | 0.00 | 0.00 | 26 | 1026.1 |
| 20260507190157 | 75 | 323 | 1.7 | 5.2 | 0.00 | 0.00 | 0.00 | 25 | 1026.2 |
| 20260507185919 | 75 | 142 | 2.6 | 5.2 | 0.00 | 0.00 | 0.00 | 26 | 1026.2 |
| 20260507184655 | 74 | 107 | 0.9 | 6.1 | 0.00 | 0.00 | 0.00 | 27 | 1026.2 |
| 20260507184411 | 74 | 144 | 2.6 | 6.1 | 0.00 | 0.00 | 0.00 | 26 | 1026.3 |
| 20260507183656 | 74 | 47 | 1.7 | 4.3 | 0.00 | 0.00 | 0.00 | 28 | 1026.4 |
| 20260507183155 | 74 | 93 | 1.7 | 4.3 | 0.00 | 0.00 | 0.00 | 26 | 1026.4 |
| 20260507182923 | 74 | 39 | 1.7 | 5.2 | 0.00 | 0.00 | 0.00 | 27 | 1026.4 |
| 20260507182155 | 74 | 158 | 0.9 | 5.2 | 0.00 | 0.00 | 0.00 | 27 | 1026.5 |
| 20260507181655 | 74 | 243 | 1.7 | 4.3 | 0.00 | 0.00 | 0.00 | 28 | 1026.5 |
| 20260507181634 | 73 | 314 | 0.9 | 4.3 | 0.00 | 0.00 | 0.00 | 31 | 1026.5 |
| 20260507180654 | 73 | 16 | 0.9 | 3.5 | 0.00 | 0.00 | 0.00 | 29 | 1026.5 |
| 20260507180155 | 73 | 271 | 0.9 | 5.2 | 0.00 | 0.00 | 0.00 | 30 | 1026.6 |
| 20260507175654 | 72 | 326 | 2.6 | 9.6 | 0.00 | 0.00 | 0.00 | 29 | 1026.6 |
| 20260507175156 | 72 | 266 | 1.7 | 9.6 | 0.00 | 0.00 | 0.00 | 32 | 1026.7 |
| 20260507174657 | 73 | 248 | 2.6 | 5.2 | 0.00 | 0.00 | 0.00 | 31 | 1026.6 |
| 20260507174647 | 72 | 286 | 1.7 | 5.2 | 0.00 | 0.00 | 0.00 | 31 | 1026.7 |
| 20260507173653 | 71 | 259 | 0.0 | 8.7 | 0.00 | 0.00 | 0.00 | 34 | 1026.7 |
| 20260507173415 | 71 | 333 | 2.6 | 8.7 | 0.00 | 0.00 | 0.00 | 34 | 1026.7 |
| 20260507172654 | 71 | 293 | 1.7 | 7.8 | 0.00 | 0.00 | 0.00 | 34 | 1026.7 |
| 20260507172412 | 70 | 302 | 3.5 | 7.8 | 0.00 | 0.00 | 0.00 | 34 | 1026.6 |
| 20260507171654 | 70 | 292 | 3.5 | 7.8 | 0.00 | 0.00 | 0.00 | 33 | 1026.7 |
| 20260507171153 | 70 | 286 | 1.7 | 5.2 | 0.00 | 0.00 | 0.00 | 35 | 1026.7 |
| 20260507170917 | 69 | 321 | 1.7 | 6.1 | 0.00 | 0.00 | 0.00 | 38 | 1026.8 |
| 20260507170153 | 68 | 272 | 2.6 | 10.4 | 0.00 | 0.00 | 0.00 | 37 | 1026.8 |
| 20260507165654 | 68 | 276 | 4.3 | 10.4 | 0.00 | 0.00 | 0.00 | 36 | 1026.9 |
| 20260507165410 | 67 | 264 | 3.5 | 11.3 | 0.00 | 0.00 | 0.00 | 37 | 1026.9 |
| 20260507164653 | 67 | 285 | 5.2 | 12.2 | 0.00 | 0.00 | 0.00 | 37 | 1027.0 |
| 20260507164150 | 67 | 302 | 2.6 | 12.2 | 0.00 | 0.00 | 0.00 | 38 | 1026.9 |
| 20260507163652 | 67 | 282 | 1.7 | 7.8 | 0.00 | 0.00 | 0.00 | 39 | 1026.9 |
| 20260507163153 | 67 | 274 | 3.5 | 9.6 | 0.00 | 0.00 | 0.00 | 39 | 1027.0 |
| 20260507162909 | 66 | 293 | 5.2 | 9.6 | 0.00 | 0.00 | 0.00 | 38 | 1027.0 |
| 20260507162422 | 66 | 266 | 4.3 | 11.3 | 0.00 | 0.00 | 0.00 | 39 | 1027.1 |
| 20260507161652 | 66 | 271 | 5.2 | 11.3 | 0.00 | 0.00 | 0.00 | 40 | 1027.2 |
| 20260507161152 | 65 | 214 | 3.5 | 10.4 | 0.00 | 0.00 | 0.00 | 40 | 1027.3 |
| 20260507160652 | 65 | 292 | 3.5 | 10.4 | 0.00 | 0.00 | 0.00 | 42 | 1027.5 |
| 20260507160152 | 65 | 272 | 1.7 | 9.6 | 0.00 | 0.00 | 0.00 | 42 | 1027.2 |
| 20260507155649 | 65 | 241 | 1.7 | 13.0 | 0.00 | 0.00 | 0.00 | 41 | 1027.2 |
| 20260507155420 | 64 | 288 | 2.6 | 13.0 | 0.00 | 0.00 | 0.00 | 42 | 1027.5 |
| 20260507154652 | 64 | 274 | 2.6 | 9.6 | 0.00 | 0.00 | 0.00 | 43 | 1027.5 |
| 20260507154416 | 64 | 289 | 2.6 | 8.7 | 0.00 | 0.00 | 0.00 | 43 | 1027.5 |
| 20260507153652 | 63 | 278 | 2.6 | 10.4 | 0.00 | 0.00 | 0.00 | 44 | 1027.6 |
| 20260507153151 | 63 | 264 | 3.5 | 13.0 | 0.00 | 0.00 | 0.00 | 44 | 1027.6 |
| 20260507152651 | 62 | 271 | 2.6 | 13.0 | 0.00 | 0.00 | 0.00 | 44 | 1027.6 |
| 20260507152151 | 62 | 333 | 3.5 | 9.6 | 0.00 | 0.00 | 0.00 | 45 | 1027.7 |
| 20260507151650 | 62 | 275 | 2.6 | 8.7 | 0.00 | 0.00 | 0.00 | 45 | 1027.7 |
| 20260507151148 | 61 | 336 | 2.6 | 8.7 | 0.00 | 0.00 | 0.00 | 46 | 1027.9 |
| 20260507150650 | 61 | 286 | 2.6 | 6.1 | 0.00 | 0.00 | 0.00 | 47 | 1027.9 |
| 20260507150151 | 61 | 262 | 2.6 | 6.1 | 0.00 | 0.00 | 0.00 | 46 | 1027.9 |
| 20260507145650 | 61 | 300 | 1.7 | 9.6 | 0.00 | 0.00 | 0.00 | 47 | 1027.9 |
| 20260507145412 | 60 | 289 | 2.6 | 9.6 | 0.00 | 0.00 | 0.00 | 48 | 1027.8 |
| 20260507144650 | 60 | 281 | 2.6 | 12.2 | 0.00 | 0.00 | 0.00 | 48 | 1027.8 |
| 20260507144150 | 60 | 278 | 4.3 | 12.2 | 0.00 | 0.00 | 0.00 | 48 | 1027.8 |
| 20260507143646 | 60 | 307 | 7.0 | 12.2 | 0.00 | 0.00 | 0.00 | 47 | 1027.7 |
| 20260507143145 | 59 | 290 | 1.7 | 10.4 | 0.00 | 0.00 | 0.00 | 49 | 1027.7 |
| 20260507142648 | 59 | 303 | 4.3 | 11.3 | 0.00 | 0.00 | 0.00 | 48 | 1027.8 |
| 20260507142418 | 59 | 248 | 5.2 | 11.3 | 0.00 | 0.00 | 0.00 | 49 | 1027.9 |
| 20260507141650 | 58 | 296 | 2.6 | 11.3 | 0.00 | 0.00 | 0.00 | 51 | 1028.0 |
| 20260507141149 | 58 | 271 | 2.6 | 12.2 | 0.00 | 0.00 | 0.00 | 50 | 1027.9 |
| 20260507140650 | 58 | 299 | 2.6 | 12.2 | 0.00 | 0.00 | 0.00 | 51 | 1027.8 |
| 20260507140149 | 58 | 281 | 3.5 | 12.2 | 0.00 | 0.00 | 0.00 | 51 | 1027.9 |
| 20260507135649 | 57 | 269 | 5.2 | 12.2 | 0.00 | 0.00 | 0.00 | 51 | 1027.8 |
| 20260507135146 | 57 | 274 | 1.7 | 10.4 | 0.00 | 0.00 | 0.00 | 52 | 1027.8 |
| 20260507134645 | 57 | 269 | 3.5 | 10.4 | 0.00 | 0.00 | 0.00 | 51 | 1027.7 |
| 20260507134146 | 57 | 283 | 3.5 | 8.7 | 0.00 | 0.00 | 0.00 | 52 | 1027.6 |
| 20260507133648 | 57 | 320 | 1.7 | 7.8 | 0.00 | 0.00 | 0.00 | 53 | 1027.6 |
| 20260507133409 | 56 | 313 | 3.5 | 7.8 | 0.00 | 0.00 | 0.00 | 53 | 1027.5 |
| 20260507132648 | 56 | 283 | 3.5 | 7.8 | 0.00 | 0.00 | 0.00 | 53 | 1027.5 |
| 20260507132148 | 56 | 314 | 3.5 | 7.8 | 0.00 | 0.00 | 0.00 | 52 | 1027.5 |
| 20260507131915 | 56 | 254 | 3.5 | 7.8 | 0.00 | 0.00 | 0.00 | 53 | 1027.6 |
| 20260507131144 | 56 | 264 | 2.6 | 8.7 | 0.00 | 0.00 | 0.00 | 52 | 1027.3 |
| 20260507130645 | 56 | 269 | 2.6 | 8.7 | 0.00 | 0.00 | 0.00 | 52 | 1027.2 |
| 20260507130144 | 56 | 262 | 4.3 | 7.8 | 0.00 | 0.00 | 0.00 | 52 | 1027.1 |
| 20260507125646 | 56 | 281 | 3.5 | 8.7 | 0.00 | 0.00 | 0.00 | 52 | 1027.1 |
| 20260507125147 | 56 | 290 | 4.3 | 8.7 | 0.00 | 0.00 | 0.00 | 52 | 1027.0 |
| 20260507124649 | 56 | 300 | 3.5 | 5.2 | 0.00 | 0.00 | 0.00 | 52 | 1027.0 |
| 20260507124147 | 56 | 283 | 3.5 | 9.6 | 0.00 | 0.00 | 0.00 | 52 | 1027.0 |
| 20260507123647 | 56 | 251 | 1.7 | 9.6 | 0.00 | 0.00 | 0.00 | 52 | 1027.0 |
| 20260507123408 | 56 | 279 | 3.5 | 9.6 | 0.00 | 0.00 | 0.00 | 51 | 1027.0 |
| 20260507122647 | 56 | 285 | 3.5 | 5.2 | 0.00 | 0.00 | 0.00 | 51 | 1027.0 |
| 20260507122147 | 56 | 278 | 1.7 | 5.2 | 0.00 | 0.00 | 0.00 | 51 | 1027.0 |
| 20260507121647 | 56 | 275 | 2.6 | 6.1 | 0.00 | 0.00 | 0.00 | 51 | 1027.1 |
| 20260507121145 | 56 | 272 | 3.5 | 7.8 | 0.00 | 0.00 | 0.00 | 50 | 1027.1 |
| 20260507120646 | 57 | 261 | 4.3 | 7.8 | 0.00 | 0.00 | 0.00 | 50 | 1027.1 |
| 20260507120148 | 57 | 264 | 1.7 | 7.8 | 0.00 | 0.00 | 0.00 | 50 | 1027.1 |
| 20260507115908 | 57 | 290 | 2.6 | 7.8 | 0.00 | 0.00 | 0.00 | 50 | 1027.1 |
| 20260507115146 | 57 | 282 | 1.7 | 5.2 | 0.00 | 0.00 | 0.00 | 50 | 1027.2 |
| 20260507114646 | 57 | 17 | 0.9 | 5.2 | 0.00 | 0.00 | 0.00 | 50 | 1027.1 |
| 20260507114404 | 57 | 17 | 2.6 | 10.4 | 0.00 | 0.00 | 0.00 | 50 | 1027.1 |
| 20260507113643 | 57 | 289 | 0.9 | 10.4 | 0.00 | 0.00 | 0.00 | 50 | 1027.1 |
| 20260507113142 | 57 | 283 | 1.7 | 4.3 | 0.00 | 0.00 | 0.00 | 50 | 1027.2 |
| 20260507112900 | 57 | 272 | 0.9 | 8.7 | 0.00 | 0.00 | 0.00 | 50 | 1027.2 |
| 20260507112145 | 57 | 131 | 1.7 | 8.7 | 0.00 | 0.00 | 0.00 | 49 | 1027.1 |
| 20260507111647 | 57 | 1 | 1.7 | 4.3 | 0.00 | 0.00 | 0.00 | 49 | 1027.1 |
| 20260507111146 | 57 | 310 | 1.7 | 5.2 | 0.00 | 0.00 | 0.00 | 49 | 1027.0 |
| 20260507110645 | 57 | 247 | 0.0 | 14.8 | 0.00 | 0.00 | 0.00 | 49 | 1027.0 |
| 20260507110145 | 57 | 329 | 2.6 | 14.8 | 0.00 | 0.00 | 0.00 | 49 | 1027.0 |
| 20260507105644 | 57 | 96 | 2.6 | 7.8 | 0.00 | 0.00 | 0.00 | 48 | 1026.9 |
| 20260507105405 | 57 | 320 | 1.7 | 9.6 | 0.00 | 0.00 | 0.00 | 48 | 1027.0 |
| 20260507104645 | 57 | 127 | 2.6 | 9.6 | 0.00 | 0.00 | 0.00 | 48 | 1027.0 |
| 20260507104146 | 58 | 324 | 0.9 | 9.6 | 0.00 | 0.00 | 0.00 | 48 | 1027.0 |
| 20260507103911 | 58 | 238 | 2.6 | 9.6 | 0.00 | 0.00 | 0.00 | 47 | 1026.9 |
| 20260507103144 | 58 | 310 | 1.7 | 8.7 | 0.00 | 0.00 | 0.00 | 48 | 1026.9 |
| 20260507102644 | 58 | 281 | 0.9 | 8.7 | 0.00 | 0.00 | 0.00 | 47 | 1027.0 |
| 20260507102407 | 58 | 320 | 1.7 | 7.8 | 0.00 | 0.00 | 0.00 | 47 | 1026.9 |
| 20260507101644 | 58 | 255 | 2.6 | 7.8 | 0.00 | 0.00 | 0.00 | 47 | 1027.0 |
| 20260507101144 | 58 | 262 | 1.7 | 7.8 | 0.00 | 0.00 | 0.00 | 48 | 1026.8 |
| 20260507100641 | 58 | 255 | 1.7 | 7.8 | 0.00 | 0.00 | 0.00 | 48 | 1026.9 |
| 20260507100140 | 58 | 319 | 1.7 | 5.2 | 0.00 | 0.00 | 0.00 | 48 | 1026.8 |
| 20260507095645 | 58 | 162 | 1.7 | 9.6 | 0.00 | 0.00 | 0.00 | 48 | 1026.7 |
| 20260507095144 | 58 | 268 | 2.6 | 9.6 | 0.00 | 0.00 | 0.00 | 47 | 1026.7 |
| 20260507094643 | 58 | 34 | 1.7 | 9.6 | 0.00 | 0.00 | 0.00 | 47 | 1026.7 |
| 20260507094400 | 58 | 262 | 2.6 | 9.6 | 0.00 | 0.00 | 0.00 | 48 | 1026.6 |
| 20260507093643 | 58 | 214 | 1.7 | 7.8 | 0.00 | 0.00 | 0.00 | 48 | 1026.6 |
| 20260507093144 | 58 | 265 | 0.9 | 5.2 | 0.00 | 0.00 | 0.00 | 48 | 1026.6 |
| 20260507092643 | 58 | 329 | 0.9 | 5.2 | 0.00 | 0.00 | 0.00 | 48 | 1026.5 |
| 20260507092412 | 58 | 299 | 1.7 | 6.1 | 0.00 | 0.00 | 0.00 | 48 | 1026.5 |
| 20260507092144 | 58 | 288 | 0.9 | 6.1 | 0.00 | 0.00 | 0.00 | 48 | 1026.5 |
| 20260507091144 | 58 | 30 | 1.7 | 7.8 | 0.00 | 0.00 | 0.00 | 47 | 1026.5 |
| 20260507090910 | 58 | 269 | 1.7 | 7.8 | 0.00 | 0.00 | 0.00 | 47 | 1026.4 |
| 20260507090143 | 58 | 276 | 2.6 | 7.8 | 0.00 | 0.00 | 0.00 | 47 | 1026.4 |
| 20260507085645 | 58 | 269 | 1.7 | 10.4 | 0.00 | 0.00 | 0.00 | 47 | 1026.4 |
| 20260507085142 | 58 | 307 | 1.7 | 10.4 | 0.00 | 0.00 | 0.00 | 47 | 1026.5 |
| 20260507084642 | 58 | 272 | 1.7 | 9.6 | 0.00 | 0.00 | 0.00 | 47 | 1026.5 |
| 20260507084141 | 58 | 244 | 0.9 | 9.6 | 0.00 | 0.00 | 0.00 | 47 | 1026.5 |
| 20260507083640 | 58 | 327 | 1.7 | 6.1 | 0.00 | 0.00 | 0.00 | 47 | 1026.4 |
| 20260507083402 | 59 | 206 | 1.7 | 13.0 | 0.00 | 0.00 | 0.00 | 47 | 1026.3 |
| 20260507082642 | 59 | 271 | 3.5 | 13.0 | 0.00 | 0.00 | 0.00 | 47 | 1026.3 |
| 20260507082624 | 59 | 268 | 3.5 | 11.3 | 0.00 | 0.00 | 0.00 | 47 | 1026.4 |
| 20260507081641 | 59 | 298 | 3.5 | 11.3 | 0.00 | 0.00 | 0.00 | 46 | 1026.4 |
| 20260507081141 | 59 | 286 | 1.7 | 12.2 | 0.00 | 0.00 | 0.00 | 47 | 1026.5 |
| 20260507080642 | 59 | 251 | 1.7 | 12.2 | 0.00 | 0.00 | 0.00 | 47 | 1026.5 |
| 20260507080142 | 59 | 299 | 3.5 | 10.4 | 0.00 | 0.00 | 0.00 | 47 | 1026.4 |
| 20260507075641 | 59 | 266 | 1.7 | 6.1 | 0.00 | 0.00 | 0.00 | 47 | 1026.4 |
| 20260507075404 | 59 | 268 | 0.9 | 5.2 | 0.00 | 0.00 | 0.00 | 47 | 1026.5 |
| 20260507074641 | 59 | 41 | 0.9 | 11.3 | 0.00 | 0.00 | 0.00 | 47 | 1026.5 |
| 20260507074409 | 59 | 316 | 1.7 | 11.3 | 0.00 | 0.00 | 0.00 | 48 | 1026.3 |
| 20260507073641 | 58 | 312 | 2.6 | 7.8 | 0.00 | 0.00 | 0.00 | 48 | 1026.3 |
| 20260507073141 | 59 | 288 | 0.9 | 7.8 | 0.00 | 0.00 | 0.00 | 48 | 1026.3 |
| 20260507072902 | 59 | 296 | 0.0 | 8.7 | 0.00 | 0.00 | 0.00 | 48 | 1026.2 |
| 20260507072140 | 59 | 303 | 3.5 | 8.7 | 0.00 | 0.00 | 0.00 | 48 | 1026.1 |
| 20260507071641 | 59 | 269 | 3.5 | 10.4 | 0.00 | 0.00 | 0.00 | 47 | 1026.1 |
| 20260507071145 | 60 | 276 | 1.7 | 12.2 | 0.00 | 0.00 | 0.00 | 47 | 1026.0 |
| 20260507070641 | 60 | 299 | 7.0 | 12.2 | 0.00 | 0.00 | 0.00 | 46 | 1026.1 |
| 20260507070404 | 60 | 282 | 6.1 | 13.9 | 0.00 | 0.00 | 0.00 | 46 | 1026.1 |
| 20260507065640 | 60 | 271 | 5.2 | 13.9 | 0.00 | 0.00 | 0.00 | 46 | 1026.0 |
| 20260507065140 | 60 | 264 | 5.2 | 11.3 | 0.00 | 0.00 | 0.00 | 45 | 1026.0 |
| 20260507064639 | 60 | 274 | 4.3 | 11.3 | 0.00 | 0.00 | 0.00 | 45 | 1026.1 |
| 20260507064139 | 60 | 271 | 3.5 | 8.7 | 0.00 | 0.00 | 0.00 | 46 | 1026.2 |
| 20260507063907 | 60 | 258 | 2.6 | 10.4 | 0.00 | 0.00 | 0.00 | 45 | 1026.2 |
| 20260507063141 | 60 | 245 | 2.6 | 10.4 | 0.00 | 0.00 | 0.00 | 46 | 1026.2 |
| 20260507062904 | 60 | 295 | 0.9 | 10.4 | 0.00 | 0.00 | 0.00 | 46 | 1026.2 |
| 20260507062140 | 60 | 261 | 0.9 | 7.8 | 0.00 | 0.00 | 0.00 | 47 | 1025.7 |
| 20260507061639 | 60 | 293 | 2.6 | 7.8 | 0.00 | 0.00 | 0.00 | 47 | 1025.7 |
| 20260507061139 | 60 | 290 | 1.7 | 9.6 | 0.00 | 0.00 | 0.00 | 47 | 1025.8 |
| 20260507060639 | 60 | 52 | 1.7 | 9.6 | 0.00 | 0.00 | 0.00 | 47 | 1026.0 |
| 20260507060138 | 61 | 302 | 5.2 | 9.6 | 0.00 | 0.00 | 0.00 | 46 | 1025.7 |
| 20260507055638 | 60 | 264 | 3.5 | 9.6 | 0.00 | 0.00 | 0.00 | 47 | 1025.8 |
| 20260507055138 | 61 | 314 | 5.2 | 13.0 | 0.00 | 0.00 | 0.00 | 46 | 1026.0 |
| 20260507054638 | 61 | 293 | 3.5 | 13.0 | 0.00 | 0.00 | 0.00 | 46 | 1026.1 |
| 20260507054138 | 60 | 281 | 3.5 | 9.6 | 0.00 | 0.00 | 0.00 | 47 | 1026.0 |
| 20260507053639 | 60 | 281 | 2.6 | 5.2 | 0.00 | 0.00 | 0.00 | 47 | 1026.1 |
| 20260507053137 | 61 | 237 | 2.6 | 5.2 | 0.00 | 0.00 | 0.00 | 46 | 1026.2 |
| 20260507052637 | 61 | 276 | 2.6 | 5.2 | 0.00 | 0.00 | 0.00 | 45 | 1026.2 |
| 20260507052357 | 61 | 248 | 1.7 | 8.7 | 0.00 | 0.00 | 0.00 | 46 | 1026.1 |
| 20260507051638 | 61 | 290 | 0.9 | 11.3 | 0.00 | 0.00 | 0.00 | 45 | 1026.1 |
| 20260507051359 | 62 | 286 | 3.5 | 11.3 | 0.00 | 0.00 | 0.00 | 45 | 1026.0 |
| 20260507050636 | 62 | 324 | 3.5 | 8.7 | 0.00 | 0.00 | 0.00 | 44 | 1026.1 |
| 20260507050138 | 62 | 295 | 4.3 | 8.7 | 0.00 | 0.00 | 0.00 | 44 | 1026.2 |
| 20260507045637 | 62 | 272 | 1.7 | 4.3 | 0.00 | 0.00 | 0.00 | 45 | 1026.2 |
| 20260507045139 | 62 | 285 | 0.9 | 6.1 | 0.00 | 0.00 | 0.00 | 45 | 1026.2 |
| 20260507044637 | 62 | 289 | 2.6 | 6.1 | 0.00 | 0.00 | 0.00 | 44 | 1026.2 |
| 20260507044136 | 63 | 281 | 2.6 | 10.4 | 0.00 | 0.00 | 0.00 | 44 | 1026.1 |
| 20260507043637 | 63 | 279 | 5.2 | 10.4 | 0.00 | 0.00 | 0.00 | 44 | 1026.1 |
| 20260507043357 | 63 | 258 | 2.6 | 16.5 | 0.00 | 0.00 | 0.00 | 43 | 1026.0 |
| 20260507042637 | 63 | 282 | 1.7 | 16.5 | 0.00 | 0.00 | 0.00 | 43 | 1026.1 |
| 20260507042136 | 63 | 283 | 6.1 | 14.8 | 0.00 | 0.00 | 0.00 | 43 | 1026.1 |
| 20260507041637 | 63 | 240 | 2.6 | 14.8 | 0.00 | 0.00 | 0.00 | 43 | 1026.1 |
| 20260507041136 | 63 | 240 | 3.5 | 8.7 | 0.00 | 0.00 | 0.00 | 43 | 1025.8 |
| 20260507040636 | 64 | 271 | 2.6 | 8.7 | 0.00 | 0.00 | 0.00 | 43 | 1025.8 |
| 20260507040135 | 64 | 275 | 1.7 | 13.9 | 0.00 | 0.00 | 0.00 | 42 | 1025.7 |
| 20260507035635 | 64 | 290 | 6.1 | 14.8 | 0.00 | 0.00 | 0.00 | 42 | 1025.6 |
| 20260507035135 | 64 | 245 | 2.6 | 14.8 | 0.00 | 0.00 | 0.00 | 42 | 1025.6 |
| 20260507034635 | 64 | 309 | 1.7 | 7.8 | 0.00 | 0.00 | 0.00 | 41 | 1025.5 |
| 20260507034135 | 65 | 21 | 0.9 | 4.3 | 0.00 | 0.00 | 0.00 | 41 | 1025.4 |
| 20260507033635 | 65 | 281 | 0.9 | 13.0 | 0.00 | 0.00 | 0.00 | 40 | 1025.2 |
| 20260507033136 | 66 | 288 | 1.7 | 13.0 | 0.00 | 0.00 | 0.00 | 38 | 1025.1 |
| 20260507032634 | 66 | 269 | 7.0 | 13.0 | 0.00 | 0.00 | 0.00 | 38 | 1025.0 |
| 20260507032136 | 66 | 275 | 5.2 | 12.2 | 0.00 | 0.00 | 0.00 | 38 | 1024.8 |
| 20260507031857 | 66 | 290 | 5.2 | 11.3 | 0.00 | 0.00 | 0.00 | 37 | 1024.9 |
| 20260507031135 | 67 | 268 | 0.9 | 13.0 | 0.00 | 0.00 | 0.00 | 37 | 1024.9 |
| 20260507030855 | 67 | 283 | 5.2 | 13.0 | 0.00 | 0.00 | 0.00 | 36 | 1024.7 |
| 20260507030134 | 67 | 274 | 3.5 | 12.2 | 0.00 | 0.00 | 0.00 | 36 | 1024.7 |
| 20260507025635 | 67 | 295 | 1.7 | 12.2 | 0.00 | 0.00 | 0.00 | 36 | 1024.7 |
| 20260507025134 | 68 | 51 | 0.9 | 9.6 | 0.00 | 0.00 | 0.00 | 35 | 1024.6 |
| 20260507024635 | 68 | 282 | 3.5 | 10.4 | 0.00 | 0.00 | 0.00 | 34 | 1024.5 |
| 20260507024134 | 69 | 255 | 1.7 | 10.4 | 0.00 | 0.00 | 0.00 | 34 | 1024.4 |
| 20260507023635 | 69 | 272 | 3.5 | 8.7 | 0.00 | 0.00 | 0.00 | 33 | 1024.5 |
| 20260507023401 | 70 | 326 | 1.7 | 8.7 | 0.00 | 0.00 | 0.00 | 32 | 1024.5 |
| 20260507022858 | 71 | 255 | 0.9 | 6.1 | 0.00 | 0.00 | 0.00 | 32 | 1024.2 |
| 20260507022133 | 71 | 289 | 2.6 | 6.1 | 0.00 | 0.00 | 0.00 | 31 | 1024.4 |
| 20260507021633 | 72 | 295 | 2.6 | 5.2 | 0.00 | 0.00 | 0.00 | 31 | 1024.4 |
| 20260507021134 | 72 | 268 | 1.7 | 4.3 | 0.00 | 0.00 | 0.00 | 30 | 1024.4 |
| 20260507020633 | 72 | 244 | 0.0 | 5.2 | 0.00 | 0.00 | 0.00 | 31 | 1024.2 |
| 20260507020134 | 73 | 265 | 1.7 | 7.8 | 0.00 | 0.00 | 0.00 | 30 | 1024.2 |
| 20260507015633 | 73 | 37 | 0.9 | 7.8 | 0.00 | 0.00 | 0.00 | 30 | 1024.1 |
| 20260507015357 | 73 | 307 | 0.9 | 9.6 | 0.00 | 0.00 | 0.00 | 30 | 1024.1 |
| 20260507014633 | 73 | 298 | 1.7 | 9.6 | 0.00 | 0.00 | 0.00 | 30 | 1024.0 |
| 20260507014132 | 74 | 344 | 1.7 | 13.0 | 0.00 | 0.00 | 0.00 | 29 | 1024.0 |
| 20260507013632 | 74 | 271 | 4.3 | 13.0 | 0.00 | 0.00 | 0.00 | 28 | 1024.0 |
| 20260507013132 | 74 | 51 | 1.7 | 11.3 | 0.00 | 0.00 | 0.00 | 29 | 1024.0 |
| 20260507012633 | 74 | 290 | 2.6 | 11.3 | 0.00 | 0.00 | 0.00 | 28 | 1024.0 |
| 20260507012132 | 74 | 340 | 1.7 | 10.4 | 0.00 | 0.00 | 0.00 | 28 | 1023.9 |
| 20260507011635 | 74 | 38 | 1.7 | 10.4 | 0.00 | 0.00 | 0.00 | 29 | 1024.0 |
| 20260507011132 | 75 | 272 | 1.7 | 8.7 | 0.00 | 0.00 | 0.00 | 28 | 1024.0 |
| 20260507010633 | 76 | 299 | 0.9 | 8.7 | 0.00 | 0.00 | 0.00 | 27 | 1024.0 |
| 20260507010132 | 76 | 286 | 2.6 | 8.7 | 0.00 | 0.00 | 0.00 | 27 | 1023.9 |
| 20260507005849 | 76 | 313 | 0.9 | 9.6 | 0.00 | 0.00 | 0.00 | 28 | 1023.9 |
| 20260507005131 | 75 | 268 | 1.7 | 9.6 | 0.00 | 0.00 | 0.00 | 28 | 1023.8 |
| 20260507004631 | 75 | 296 | 2.6 | 11.3 | 0.00 | 0.00 | 0.00 | 28 | 1023.7 |
| 20260507004358 | 75 | 61 | 4.3 | 11.3 | 0.00 | 0.00 | 0.00 | 27 | 1023.8 |
| 20260507003631 | 75 | 296 | 3.5 | 11.3 | 0.00 | 0.00 | 0.00 | 28 | 1023.8 |
| 20260507003132 | 75 | 305 | 3.5 | 9.6 | 0.00 | 0.00 | 0.00 | 28 | 1023.7 |
| 20260507002630 | 76 | 334 | 1.7 | 9.6 | 0.00 | 0.00 | 0.00 | 27 | 1023.7 |
| 20260507002139 | 77 | 330 | 3.5 | 8.7 | 0.00 | 0.00 | 0.00 | 27 | 1023.6 |
| 20260507001630 | 78 | 323 | 2.6 | 8.7 | 0.00 | 0.00 | 0.00 | 26 | 1023.7 |
| 20260507001131 | 78 | 51 | 2.6 | 8.7 | 0.00 | 0.00 | 0.00 | 26 | 1023.5 |
| 20260507000631 | 78 | 344 | 1.7 | 8.7 | 0.00 | 0.00 | 0.00 | 26 | 1023.4 |
| 20260507000346 | 78 | 288 | 3.5 | 8.7 | 0.00 | 0.00 | 0.00 | 27 | 1023.3 |
| 20260506235631 | 77 | 282 | 2.6 | 13.0 | 0.00 | 0.00 | 0.00 | 26 | 1023.3 |
| 20260506235130 | 77 | 278 | 3.5 | 13.0 | 0.00 | 0.00 | 0.00 | 26 | 1023.2 |
| 20260506234631 | 77 | 298 | 2.6 | 6.1 | 0.00 | 0.00 | 0.00 | 27 | 1023.3 |
| 20260506234130 | 77 | 285 | 3.5 | 6.1 | 0.00 | 0.00 | 0.00 | 27 | 1023.4 |
| 20260506233632 | 77 | 295 | 1.7 | 6.1 | 0.00 | 0.00 | 0.00 | 29 | 1023.3 |
| 20260506233129 | 77 | 16 | 1.7 | 3.5 | 0.00 | 0.00 | 0.00 | 27 | 1023.3 |
| 20260506232631 | 77 | 279 | 0.0 | 6.1 | 0.00 | 0.00 | 0.00 | 29 | 1023.3 |
| 20260506232130 | 78 | 290 | 1.7 | 6.1 | 0.00 | 0.00 | 0.00 | 29 | 1023.3 |
| 20260506231628 | 78 | 305 | 0.9 | 4.3 | 0.00 | 0.00 | 0.00 | 28 | 1023.3 |
| 20260506231130 | 78 | 353 | 0.0 | 2.6 | 0.00 | 0.00 | 0.00 | 30 | 1023.2 |
| 20260506230629 | 78 | 227 | 0.0 | 7.8 | 0.00 | 0.00 | 0.00 | 29 | 1023.3 |
| 20260506230130 | 77 | 317 | 0.0 | 7.8 | 0.00 | 0.00 | 0.00 | 30 | 1023.4 |
| 20260506225851 | 78 | 72 | 0.9 | 5.2 | 0.00 | 0.00 | 0.00 | 29 | 1023.4 |
| 20260506225130 | 78 | 290 | 0.9 | 5.2 | 0.00 | 0.00 | 0.00 | 29 | 1023.5 |
| 20260506224629 | 77 | 317 | 0.9 | 5.2 | 0.00 | 0.00 | 0.00 | 28 | 1023.4 |
| 20260506224349 | 78 | 313 | 1.7 | 9.6 | 0.00 | 0.00 | 0.00 | 28 | 1023.5 |
| 20260506223629 | 78 | 278 | 1.7 | 9.6 | 0.00 | 0.00 | 0.00 | 28 | 1023.5 |
| 20260506223354 | 78 | 312 | 1.7 | 9.6 | 0.00 | 0.00 | 0.00 | 28 | 1023.5 |
| 20260506222630 | 79 | 248 | 0.9 | 6.1 | 0.00 | 0.00 | 0.00 | 29 | 1023.6 |
| 20260506222127 | 79 | 333 | 1.7 | 7.8 | 0.00 | 0.00 | 0.00 | 29 | 1023.5 |
| 20260506221629 | 79 | 240 | 0.9 | 7.8 | 0.00 | 0.00 | 0.00 | 29 | 1023.6 |
| 20260506221128 | 79 | 283 | 0.9 | 9.6 | 0.00 | 0.00 | 0.00 | 29 | 1023.5 |
| 20260506220627 | 80 | 1 | 1.7 | 9.6 | 0.00 | 0.00 | 0.00 | 29 | 1023.5 |
| 20260506220128 | 80 | 296 | 2.6 | 7.8 | 0.00 | 0.00 | 0.00 | 28 | 1023.6 |
| 20260506215628 | 80 | 305 | 0.9 | 4.3 | 0.00 | 0.00 | 0.00 | 29 | 1023.6 |
| 20260506215345 | 81 | 317 | 1.7 | 4.3 | 0.00 | 0.00 | 0.00 | 28 | 1023.5 |
| 20260506214627 | 81 | 65 | 1.7 | 4.3 | 0.00 | 0.00 | 0.00 | 29 | 1023.7 |
| 20260506214129 | 81 | 285 | 0.9 | 11.3 | 0.00 | 0.00 | 0.00 | 28 | 1023.5 |
| 20260506213627 | 81 | 326 | 1.7 | 13.9 | 0.00 | 0.00 | 0.00 | 27 | 1023.4 |
| 20260506213128 | 81 | 38 | 3.5 | 13.9 | 0.00 | 0.00 | 0.00 | 27 | 1023.5 |
| 20260506212627 | 81 | 0 | 1.7 | 6.1 | 0.00 | 0.00 | 0.00 | 29 | 1023.5 |
| 20260506212127 | 81 | 31 | 1.7 | 6.1 | 0.00 | 0.00 | 0.00 | 28 | 1023.6 |
| 20260506211849 | 82 | 354 | 1.7 | 4.3 | 0.00 | 0.00 | 0.00 | 28 | 1023.6 |
| 20260506211126 | 82 | 131 | 1.7 | 11.3 | 0.00 | 0.00 | 0.00 | 28 | 1023.5 |
| 20260506210627 | 81 | 286 | 1.7 | 11.3 | 0.00 | 0.00 | 0.00 | 27 | 1023.4 |
| 20260506210126 | 82 | 288 | 2.6 | 5.2 | 0.00 | 0.00 | 0.00 | 29 | 1023.4 |
| 20260506205627 | 82 | 248 | 0.9 | 7.8 | 0.00 | 0.00 | 0.00 | 27 | 1023.6 |
| 20260506205126 | 81 | 268 | 1.7 | 10.4 | 0.00 | 0.00 | 0.00 | 27 | 1023.5 |
| 20260506204851 | 82 | 353 | 2.6 | 10.4 | 0.00 | 0.00 | 0.00 | 27 | 1023.6 |
| 20260506204125 | 82 | 272 | 2.6 | 8.7 | 0.00 | 0.00 | 0.00 | 27 | 1023.6 |
| 20260506203626 | 81 | 295 | 0.9 | 10.4 | 0.00 | 0.00 | 0.00 | 30 | 1023.6 |
| 20260506203126 | 81 | 262 | 1.7 | 10.4 | 0.00 | 0.00 | 0.00 | 28 | 1023.6 |
| 20260506202624 | 82 | 240 | 1.7 | 5.2 | 0.00 | 0.00 | 0.00 | 28 | 1023.6 |
| 20260506202126 | 82 | 298 | 2.6 | 8.7 | 0.00 | 0.00 | 0.00 | 28 | 1023.6 |
| 20260506201625 | 82 | 18 | 2.6 | 8.7 | 0.00 | 0.00 | 0.00 | 27 | 1023.6 |
| 20260506201130 | 82 | 295 | 1.7 | 5.2 | 0.00 | 0.00 | 0.00 | 30 | 1023.8 |
| 20260506200625 | 82 | 286 | 1.7 | 6.1 | 0.00 | 0.00 | 0.00 | 29 | 1023.8 |
| 20260506200350 | 81 | 31 | 2.6 | 6.1 | 0.00 | 0.00 | 0.00 | 29 | 1023.8 |